Hourly Data Report for April 06, 2016

All times are specified in Local Standard Time (LST). Add 1 hour to adjust for Daylight Saving Time where and when it is observed.

EMERSON AUTO
MANITOBA

49°00'00.000" N
97°14'15.000" W
242.00 m
5020881
71560
WEX

Download Data

Hourly Data (April 2016)
Hourly Data Report for April 6, 2016
Temp Definition
°C
Dew Point Temp Definition
°C
Rel Hum Definition
%
Wind Dir Definition
10's deg

Wind Spd Definition
km/h
Visibility Definition
km
Stn Press Definition
kPa
Hmdx Definition


Wind Chill Definition


Weather Definition


TIME
00:00 0.3 0.3 100 3 17   97.97     LegendNANA
01:00 0.3 0.2 100 3 16   98.01     LegendNANA
02:00 0.2 0.2 100 3 18   97.99     LegendNANA
03:00 0.4 0.4 100 2 19   98.05     LegendNANA
04:00 0.4 0.4 100 1 18   98.11     LegendNANA
05:00 0.3 0.2 100 1 21   98.19     LegendNANA
06:00 0.2 0.0 99 1 19   98.23     LegendNANA
07:00 0.0 -0.1 99 1 19   98.28   -5 LegendNANA
08:00 0.2 -0.1 98 1 19   98.33     LegendNANA
09:00 -0.4 -0.3 100 35 23   98.31   -6 LegendNANA
10:00 0.0 -0.1 99 36 18   98.32   -5 LegendNANA
11:00 0.4 -0.2 96 34 13   98.32     LegendNANA
12:00 1.3 0.7 95 33 15   98.28     LegendNANA
13:00 1.1 0.1 93 32 13   98.20     LegendNANA
14:00 1.0 0.3 95 31 12   98.14     LegendNANA
15:00 1.6 0.0 90 30 7   98.08     LegendNANA
16:00 1.7 -0.1 88 26 3   98.05     LegendNANA
17:00 2.0 0.1 87 21 7   98.02     LegendNANA
18:00 2.0 0.1 88 16 10   97.99     LegendNANA
19:00 1.4 0.2 92 17 8   97.95     LegendNANA
20:00 0.8 0.2 96 17 11   97.90     LegendNANA
21:00 1.0 0.4 96 17 16   97.88     LegendNANA
22:00 0.4 0.3 99 18 16   97.83     LegendNANA
23:00 0.6 0.6 100 17 17   97.76     LegendNANA

Notes on Data Quality.

Legend

  • E = Estimated
  • M = Missing
  • NA = Not Available
  • ‡ = Partner data that is not subject to review by the National Climate Archives
Date modified: